When you browse on this site, cookies collect data to enhance your experience and personalize the content and advertising you see.
Visit our Privacy Policy to learn more. By continuing to use the site, you agree to this use of cookies and data.
  • In Latvia
  • List of Countries
  • For 7 days
  • Water Temperature
  • Satellite Maps
  • Weather Map
  • Weather Widgets
  • user-avatar
    Login

    Hourly Weather Escuintla

    Today, 26 April, Friday

    Time Temperature Precipitation Wind Pressure Humidity
    00:00 +24°C° 0 mm 0 mps 730 mmHg 84%
    01:00 +24°C° 0 mm 0 mps 729 mmHg 83%
    02:00 +26°C° 0 mm 1 mps 729 mmHg 82%
    03:00 +26°C° 0 mm 1 mps 729 mmHg 81%
    04:00 +26°C° 0 mm 1 mps 729 mmHg 79%
    05:00 +26°C° 0 mm 1 mps 729 mmHg 76%
    06:00 +26°C° 0 mm 1 mps 729 mmHg 73%
    07:00 +29°C° 0 mm 1 mps 730 mmHg 64%
    08:00 +32°C° 0 mm 1 mps 730 mmHg 54%
    09:00 +34°C° 0 mm 1 mps 731 mmHg 45%
    10:00 +36°C° 0 mm 2 mps 731 mmHg 44%
    11:00 +37°C° 0 mm 2 mps 730 mmHg 42%
    12:00 +38°C° 0 mm 3 mps 730 mmHg 41%
    13:00 +37°C° 0.4 mm 3 mps 729 mmHg 45%
    14:00 +36°C° 0.4 mm 2 mps 729 mmHg 48%
    15:00 +35°C° 0.4 mm 2 mps 728 mmHg 52%
    16:00 +34°C° 0.5 mm 2 mps 728 mmHg 57%
    17:00 +32°C° 0.5 mm 2 mps 728 mmHg 62%
    18:00 +30°C° 0.5 mm 2 mps 728 mmHg 67%
    19:00 +29°C° 0 mm 1 mps 729 mmHg 69%
    20:00 +29°C° 0 mm 1 mps 729 mmHg 71%
    21:00 +26°C° 0 mm 0 mps 730 mmHg 73%
    22:00 +28°C° 0 mm 1 mps 730 mmHg 73%
    23:00 +28°C° 0 mm 1 mps 730 mmHg 72%

    Tomorrow, 27 April, Saturday

    Time Temperature Precipitation Wind Pressure Humidity
    00:00 +27°C° 0 mm 1 mps 730 mmHg 71%
    01:00 +27°C° 0 mm 1 mps 729 mmHg 71%
    02:00 +27°C° 0 mm 1 mps 729 mmHg 71%
    03:00 +27°C° 0 mm 1 mps 728 mmHg 71%
    04:00 +27°C° 0 mm 1 mps 728 mmHg 71%
    05:00 +27°C° 0 mm 1 mps 729 mmHg 71%
    06:00 +27°C° 0 mm 1 mps 729 mmHg 70%
    07:00 +30°C° 0 mm 1 mps 729 mmHg 61%
    08:00 +33°C° 0 mm 1 mps 730 mmHg 52%
    09:00 +35°C° 0 mm 1 mps 731 mmHg 42%
    10:00 +36°C° 0.1 mm 2 mps 730 mmHg 43%
    11:00 +36°C° 0.1 mm 2 mps 730 mmHg 44%
    12:00 +36°C° 0.1 mm 3 mps 729 mmHg 45%
    13:00 +36°C° 0.2 mm 2 mps 729 mmHg 49%
    14:00 +35°C° 0.2 mm 2 mps 728 mmHg 53%
    15:00 +34°C° 0.2 mm 2 mps 727 mmHg 57%
    16:00 +32°C° 0.4 mm 2 mps 727 mmHg 62%
    17:00 +31°C° 0.4 mm 1 mps 727 mmHg 67%
    18:00 +30°C° 0.4 mm 1 mps 727 mmHg 72%
    19:00 +29°C° 0.1 mm 1 mps 728 mmHg 74%
    20:00 +29°C° 0.1 mm 1 mps 728 mmHg 77%
    21:00 +28°C° 0.1 mm 1 mps 729 mmHg 80%
    22:00 +28°C° 0 mm 1 mps 729 mmHg 79%
    23:00 +27°C° 0 mm 1 mps 729 mmHg 77%

    Day after tomorrow, 28 April, Sunday

    Time Temperature Precipitation Wind Pressure Humidity
    00:00 +27°C° 0 mm 1 mps 729 mmHg 76%
    01:00 +27°C° 0 mm 1 mps 728 mmHg 75%
    02:00 +27°C° 0 mm 1 mps 728 mmHg 74%
    03:00 +27°C° 0 mm 1 mps 727 mmHg 74%
    04:00 +26°C° 0 mm 1 mps 728 mmHg 73%
    05:00 +26°C° 0 mm 1 mps 728 mmHg 71%
    06:00 +26°C° 0 mm 1 mps 728 mmHg 70%
    07:00 +29°C° 0 mm 1 mps 729 mmHg 63%
    08:00 +31°C° 0 mm 1 mps 730 mmHg 55%
    09:00 +34°C° 0 mm 1 mps 730 mmHg 48%
    10:00 +36°C° 0 mm 2 mps 730 mmHg 46%
    11:00 +36°C° 0 mm 2 mps 729 mmHg 45%
    12:00 +37°C° 0 mm 3 mps 729 mmHg 43%
    13:00 +36°C° 0.2 mm 3 mps 728 mmHg 48%
    14:00 +35°C° 0.2 mm 3 mps 727 mmHg 53%
    15:00 +34°C° 0.2 mm 3 mps 726 mmHg 57%
    16:00 +32°C° 0.2 mm 2 mps 726 mmHg 63%
    17:00 +31°C° 0.2 mm 2 mps 727 mmHg 69%
    18:00 +30°C° 0.2 mm 2 mps 727 mmHg 75%
    19:00 +29°C° 0 mm 1 mps 727 mmHg 77%
    20:00 +28°C° 0 mm 1 mps 728 mmHg 79%
    21:00 +26°C° 0 mm 0 mps 729 mmHg 82%
    22:00 +28°C° 0 mm 1 mps 729 mmHg 79%
    23:00 +27°C° 0 mm 1 mps 729 mmHg 76%

    29 April, Monday

    Time Temperature Precipitation Wind Pressure Humidity
    00:00 +27°C° 0 mm 1 mps 729 mmHg 74%
    01:00 +27°C° 0 mm 1 mps 728 mmHg 71%
    02:00 +27°C° 0 mm 1 mps 728 mmHg 69%
    03:00 +27°C° 0 mm 2 mps 727 mmHg 66%
    04:00 +26°C° 0 mm 2 mps 728 mmHg 65%
    05:00 +26°C° 0 mm 2 mps 728 mmHg 63%
    06:00 +26°C° 0 mm 2 mps 728 mmHg 61%
    07:00 +29°C° 0 mm 1 mps 729 mmHg 53%
    08:00 +32°C° 0 mm 1 mps 730 mmHg 44%
    09:00 +35°C° 0 mm 1 mps 730 mmHg 36%
    10:00 +37°C° 0 mm 2 mps 730 mmHg 34%
    11:00 +38°C° 0 mm 2 mps 729 mmHg 32%
    12:00 +39°C° 0 mm 3 mps 729 mmHg 30%
    13:00 +38°C° 0 mm 3 mps 728 mmHg 33%
    14:00 +38°C° 0 mm 3 mps 727 mmHg 35%
    15:00 +38°C° 0 mm 3 mps 727 mmHg 37%
    16:00 +36°C° 0 mm 3 mps 727 mmHg 45%
    17:00 +34°C° 0 mm 2 mps 727 mmHg 53%
    18:00 +31°C° 0 mm 2 mps 727 mmHg 62%
    19:00 +30°C° 0 mm 1 mps 728 mmHg 65%
    20:00 +29°C° 0 mm 1 mps 728 mmHg 69%
    21:00 +26°C° 0 mm 0 mps 729 mmHg 72%
    22:00 +28°C° 0 mm 1 mps 729 mmHg 70%
    23:00 +28°C° 0 mm 1 mps 729 mmHg 68%

    30 April, Tuesday

    Time Temperature Precipitation Wind Pressure Humidity
    00:00 +28°C° 0 mm 1 mps 729 mmHg 67%
    01:00 +28°C° 0 mm 1 mps 729 mmHg 66%
    02:00 +28°C° 0 mm 1 mps 728 mmHg 65%
    03:00 +27°C° 0 mm 2 mps 728 mmHg 64%
    04:00 +27°C° 0 mm 1 mps 729 mmHg 65%
    05:00 +27°C° 0 mm 1 mps 729 mmHg 66%
    06:00 +27°C° 0 mm 1 mps 729 mmHg 67%
    07:00 +30°C° 0 mm 1 mps 730 mmHg 57%
    08:00 +33°C° 0 mm 1 mps 730 mmHg 47%
    09:00 +36°C° 0 mm 1 mps 730 mmHg 37%
    10:00 +37°C° 0 mm 2 mps 730 mmHg 35%
    11:00 +38°C° 0 mm 2 mps 730 mmHg 33%
    12:00 +39°C° 0 mm 3 mps 729 mmHg 32%
    13:00 +38°C° 0 mm 3 mps 728 mmHg 36%
    14:00 +37°C° 0 mm 3 mps 728 mmHg 40%
    15:00 +36°C° 0 mm 3 mps 727 mmHg 44%
    16:00 +35°C° 0.4 mm 2 mps 727 mmHg 51%
    17:00 +34°C° 0.4 mm 2 mps 727 mmHg 57%
    18:00 +31°C° 0.4 mm 1 mps 728 mmHg 63%
    19:00 +30°C° 0 mm 1 mps 728 mmHg 65%
    20:00 +30°C° 0 mm 1 mps 729 mmHg 68%
    21:00 +29°C° 0 mm 1 mps 729 mmHg 70%
    22:00 +29°C° 0 mm 1 mps 729 mmHg 69%
    23:00 +28°C° 0 mm 1 mps 729 mmHg 68%

    1 May, Wednesday

    Time Temperature Precipitation Wind Pressure Humidity
    00:00 +28°C° 0 mm 1 mps 729 mmHg 67%
    01:00 +28°C° 0 mm 1 mps 729 mmHg 66%
    02:00 +28°C° 0 mm 1 mps 728 mmHg 66%
    03:00 +28°C° 0 mm 1 mps 728 mmHg 65%
    04:00 +28°C° 0 mm 1 mps 728 mmHg 66%
    05:00 +27°C° 0 mm 1 mps 729 mmHg 67%
    06:00 +27°C° 0 mm 1 mps 729 mmHg 68%
    07:00 +30°C° 0 mm 1 mps 730 mmHg 59%
    08:00 +32°C° 0 mm 1 mps 730 mmHg 51%
    09:00 +35°C° 0 mm 1 mps 730 mmHg 43%
    10:00 +35°C° 0 mm 1 mps 730 mmHg 42%
    11:00 +37°C° 0 mm 2 mps 730 mmHg 41%
    12:00 +37°C° 0 mm 3 mps 729 mmHg 40%
    13:00 +37°C° 0.2 mm 3 mps 729 mmHg 43%
    14:00 +36°C° 0.2 mm 2 mps 728 mmHg 46%
    15:00 +36°C° 0.2 mm 2 mps 727 mmHg 49%
    16:00 +34°C° 0.7 mm 2 mps 727 mmHg 55%
    17:00 +32°C° 0.7 mm 2 mps 728 mmHg 61%
    18:00 +31°C° 0.7 mm 1 mps 728 mmHg 67%
    19:00 +30°C° 0 mm 1 mps 728 mmHg 69%
    20:00 +29°C° 0 mm 1 mps 729 mmHg 71%
    21:00 +26°C° 0 mm 0 mps 729 mmHg 73%
    22:00 +28°C° 0 mm 1 mps 729 mmHg 72%
    23:00 +28°C° 0 mm 1 mps 729 mmHg 71%
    Show more